GW3555 Weather Reports


Display with metric or nautical units.
time (UTC)temp
F
wind
direction
speed
MPH
gust
MPH
rain 1hr
in
rain 24hr
in
rain mn
in
humidity
%
barometer
mb
20260507232537 80 30 1.0 3.0 0.00 0.00 0.00 24 1012.2
20260507232023 80 46 1.0 5.0 0.00 0.00 0.00 24 1012.4
20260507231616 81 288 2.0 5.0 0.00 0.00 0.00 23 1012.4
20260507231055 80 346 1.0 4.0 0.00 0.00 0.00 25 1012.5
20260507230524 80 62 2.0 4.0 0.00 0.00 0.00 25 1012.7
20260507230124 80 134 1.0 4.0 0.00 0.00 0.00 25 1012.7
20260507225536 80 19 2.0 4.0 0.00 0.00 0.00 24 1012.8
20260507225045 80 333 1.0 4.0 0.00 0.00 0.00 24 1012.9
20260507224655 80 144 2.0 4.0 0.00 0.00 0.00 24 1012.9
20260507224044 80 9 2.0 5.0 0.00 0.00 0.00 25 1013.0
20260507223600 80 55 2.0 5.0 0.00 0.00 0.00 25 1013.1
20260507223153 80 165 1.0 7.0 0.00 0.00 0.00 24 1013.1
20260507222616 80 215 3.0 7.0 0.00 0.00 0.00 23 1013.3
20260507222034 80 132 1.0 9.0 0.00 0.00 0.00 25 1013.3
20260507221610 80 211 2.0 9.0 0.00 0.00 0.00 24 1013.3
20260507221104 80 130 3.0 7.0 0.00 0.00 0.00 24 1013.4
20260507220525 81 186 2.0 4.0 0.00 0.00 0.00 23 1013.5
20260507220116 80 89 1.0 5.0 0.00 0.00 0.00 24 1013.5
20260507215528 81 93 2.0 5.0 0.00 0.00 0.00 23 1013.5
20260507215038 80 36 1.0 5.0 0.00 0.00 0.00 23 1013.5
20260507214638 80 61 2.0 6.0 0.00 0.00 0.00 24 1013.6
20260507214113 80 272 1.0 8.0 0.00 0.00 0.00 24 1013.7
20260507213526 80 244 2.0 6.0 0.00 0.00 0.00 24 1013.8
20260507213058 79 202 1.0 5.0 0.00 0.00 0.00 25 1013.8
20260507212533 79 108 1.0 6.0 0.00 0.00 0.00 24 1013.7
20260507212024 78 51 2.0 6.0 0.00 0.00 0.00 24 1013.9
20260507211620 78 53 1.0 10.0 0.00 0.00 0.00 25 1013.9
20260507211037 78 161 4.0 10.0 0.00 0.00 0.00 23 1013.9
20260507210540 78 161 2.0 7.0 0.00 0.00 0.00 24 1014.0
20260507210121 79 105 2.0 7.0 0.00 0.00 0.00 26 1014.1
20260507205549 79 346 2.0 6.0 0.00 0.00 0.00 24 1014.2
20260507205023 79 38 2.0 6.0 0.00 0.00 0.00 24 1014.2
20260507204631 78 319 0.0 6.0 0.00 0.00 0.00 24 1014.2
20260507204117 78 31 2.0 7.0 0.00 0.00 0.00 25 1014.3
20260507203557 78 218 2.0 7.0 0.00 0.00 0.00 24 1014.4
20260507203138 78 41 2.0 5.0 0.00 0.00 0.00 23 1014.5
20260507202538 78 341 1.0 5.0 0.00 0.00 0.00 26 1014.5
20260507202032 78 346 1.0 5.0 0.00 0.00 0.00 25 1014.5
20260507201615 78 99 2.0 6.0 0.00 0.00 0.00 26 1014.5
20260507201026 78 25 2.0 7.0 0.00 0.00 0.00 26 1014.5
20260507200546 78 167 1.0 7.0 0.00 0.00 0.00 25 1014.6
20260507200122 78 123 0.0 5.0 0.00 0.00 0.00 25 1014.7
20260507195536 78 80 1.0 5.0 0.00 0.00 0.00 26 1014.6
20260507195043 78 192 2.0 6.0 0.00 0.00 0.00 25 1014.6
20260507194629 78 79 1.0 4.0 0.00 0.00 0.00 25 1014.5
20260507194032 77 28 1.0 5.0 0.00 0.00 0.00 25 1014.5
20260507193539 77 329 2.0 7.0 0.00 0.00 0.00 22 1014.5
20260507193131 78 158 1.0 4.0 0.00 0.00 0.00 24 1014.6
20260507192523 77 80 1.0 3.0 0.00 0.00 0.00 26 1014.7
20260507192019 76 146 1.0 5.0 0.00 0.00 0.00 25 1014.6
20260507191618 75 156 1.0 3.0 0.00 0.00 0.00 28 1014.6
20260507191022 75 342 1.0 4.0 0.00 0.00 0.00 26 1014.6
20260507190529 75 9 1.0 5.0 0.00 0.00 0.00 26 1014.7
20260507190226 75 298 1.0 5.0 0.00 0.00 0.00 26 1014.9
20260507190222 75 163 0.0 4.0 0.00 0.00 0.00 26 1014.8
20260507184541 74 352 2.0 5.0 0.00 0.00 0.00 29 1014.7
20260507184042 74 328 2.0 6.0 0.00 0.00 0.00 29 1015.0
20260507183610 74 20 1.0 6.0 0.00 0.00 0.00 29 1015.0
20260507183116 74 341 2.0 8.0 0.00 0.00 0.00 30 1015.1
20260507182538 73 11 1.0 8.0 0.00 0.00 0.00 30 1015.0
20260507182042 73 36 1.0 8.0 0.00 0.00 0.00 29 1015.1
20260507181620 73 298 1.0 7.0 0.00 0.00 0.00 32 1015.2
20260507181107 73 61 2.0 4.0 0.00 0.00 0.00 30 1015.2
20260507180537 73 49 1.0 5.0 0.00 0.00 0.00 33 1015.2
20260507180057 73 26 2.0 6.0 0.00 0.00 0.00 32 1015.1
20260507175523 72 115 1.0 8.0 0.00 0.00 0.00 32 1015.2
20260507175032 71 341 2.0 8.0 0.00 0.00 0.00 34 1015.3
20260507174607 71 17 2.0 5.0 0.00 0.00 0.00 32 1015.4
20260507174025 71 265 2.0 5.0 0.00 0.00 0.00 34 1015.6
20260507173538 70 306 1.0 5.0 0.00 0.00 0.00 36 1015.5
20260507173110 69 320 2.0 9.0 0.00 0.00 0.00 35 1015.5
20260507172539 69 11 1.0 10.0 0.00 0.00 0.00 36 1015.4
20260507172040 69 292 2.0 10.0 0.00 0.00 0.00 35 1015.5
20260507171620 69 339 1.0 6.0 0.00 0.00 0.00 36 1015.4
20260507171021 69 316 3.0 6.0 0.00 0.00 0.00 35 1015.5
20260507170542 68 51 2.0 5.0 0.00 0.00 0.00 38 1015.6
20260507170117 68 319 1.0 6.0 0.00 0.00 0.00 38 1015.7
20260507165606 67 347 3.0 6.0 0.00 0.00 0.00 37 1015.5
20260507165029 67 231 2.0 7.0 0.00 0.00 0.00 38 1015.5
20260507164557 67 250 2.0 7.0 0.00 0.00 0.00 39 1015.5
20260507164048 66 290 2.0 9.0 0.00 0.00 0.00 40 1015.6
20260507163528 65 244 1.0 7.0 0.00 0.00 0.00 41 1015.6
20260507163131 65 324 2.0 7.0 0.00 0.00 0.00 40 1015.7
20260507162536 65 319 1.0 9.0 0.00 0.00 0.00 41 1015.6
20260507162024 64 265 2.0 7.0 0.00 0.00 0.00 42 1015.7
20260507161623 64 15 2.0 7.0 0.00 0.00 0.00 42 1015.8
20260507161040 63 41 2.0 7.0 0.00 0.00 0.00 43 1016.0
20260507160531 63 352 2.0 9.0 0.00 0.00 0.00 43 1016.0
20260507160109 63 279 2.0 9.0 0.00 0.00 0.00 44 1016.0
20260507155532 62 298 2.0 8.0 0.00 0.00 0.00 44 1016.0
20260507155022 62 269 1.0 8.0 0.00 0.00 0.00 46 1016.1
20260507154623 61 314 1.0 8.0 0.00 0.00 0.00 45 1016.1
20260507154021 61 275 1.0 5.0 0.00 0.00 0.00 47 1016.0
20260507153536 60 252 2.0 6.0 0.00 0.00 0.00 46 1016.2
20260507153110 60 174 1.0 9.0 0.00 0.00 0.00 47 1016.2
20260507152558 60 16 2.0 6.0 0.00 0.00 0.00 47 1016.3
20260507152027 59 298 3.0 7.0 0.00 0.00 0.00 49 1016.3
20260507151555 59 352 2.0 7.0 0.00 0.00 0.00 47 1016.4
20260507151109 59 216 1.0 9.0 0.00 0.00 0.00 49 1016.4
20260507150526 59 22 2.0 9.0 0.00 0.00 0.00 49 1016.5
20260507150106 58 273 1.0 6.0 0.00 0.00 0.00 49 1016.5
20260507145540 58 328 1.0 7.0 0.00 0.00 0.00 50 1016.5
20260507145114 58 216 2.0 7.0 0.00 0.00 0.00 50 1016.5
20260507144619 58 287 1.0 6.0 0.00 0.00 0.00 50 1016.4
20260507144103 57 251 2.0 8.0 0.00 0.00 0.00 50 1016.4
20260507143533 57 258 2.0 8.0 0.00 0.00 0.00 50 1016.5
20260507143110 57 207 1.0 5.0 0.00 0.00 0.00 52 1016.4
20260507142540 57 282 0.0 8.0 0.00 0.00 0.00 52 1016.5
20260507142042 56 332 1.0 11.0 0.00 0.00 0.00 52 1016.4
20260507141631 56 42 1.0 11.0 0.00 0.00 0.00 51 1016.5
20260507141115 56 267 1.0 5.0 0.00 0.00 0.00 51 1016.4
20260507140544 56 27 1.0 5.0 0.00 0.00 0.00 52 1016.3
20260507140133 56 279 2.0 5.0 0.00 0.00 0.00 51 1016.4
20260507135548 56 273 2.0 5.0 0.00 0.00 0.00 52 1016.4
20260507135054 55 269 2.0 5.0 0.00 0.00 0.00 53 1016.3
20260507134631 55 151 1.0 5.0 0.00 0.00 0.00 53 1016.1
20260507134100 54 138 0.0 3.0 0.00 0.00 0.00 54 1016.2
20260507133536 54 310 0.0 3.0 0.00 0.00 0.00 55 1016.1
20260507133136 54 264 1.0 3.0 0.00 0.00 0.00 55 1016.1
20260507132603 54 252 0.0 3.0 0.00 0.00 0.00 55 1016.0
20260507132048 54 269 0.0 8.0 0.00 0.00 0.00 55 1016.0
20260507131629 53 191 3.0 8.0 0.00 0.00 0.00 56 1016.2
20260507131100 53 230 2.0 5.0 0.00 0.00 0.00 55 1016.0
20260507130544 53 258 2.0 4.0 0.00 0.00 0.00 56 1016.0
20260507130145 53 221 1.0 5.0 0.00 0.00 0.00 56 1015.8
20260507125522 53 255 2.0 6.0 0.00 0.00 0.00 55 1015.7
20260507125033 53 249 2.0 4.0 0.00 0.00 0.00 56 1015.7
20260507124627 53 263 2.0 3.0 0.00 0.00 0.00 55 1015.5
20260507124033 53 257 0.0 4.0 0.00 0.00 0.00 55 1015.6
20260507123531 53 209 2.0 4.0 0.00 0.00 0.00 55 1015.5
20260507123108 53 251 2.0 4.0 0.00 0.00 0.00 55 1015.5
20260507122527 53 284 1.0 4.0 0.00 0.00 0.00 54 1015.6
20260507122019 54 271 1.0 5.0 0.00 0.00 0.00 54 1015.7
20260507121556 54 292 1.0 5.0 0.00 0.00 0.00 54 1015.5
20260507121041 54 250 2.0 5.0 0.00 0.00 0.00 53 1015.7
20260507120522 54 236 2.0 6.0 0.00 0.00 0.00 53 1015.7
20260507120147 54 259 2.0 6.0 0.00 0.00 0.00 53 1015.7
20260507115618 54 264 2.0 5.0 0.00 0.00 0.00 53 1015.8
20260507115112 54 222 2.0 8.0 0.00 0.00 0.00 53 1015.8
20260507114627 54 201 3.0 8.0 0.00 0.00 0.00 53 1016.0
20260507114032 54 271 2.0 4.0 0.00 0.00 0.00 53 1016.0
20260507113521 54 250 1.0 4.0 0.00 0.00 0.00 52 1015.8
20260507113126 54 277 1.0 9.0 0.00 0.00 0.00 52 1015.9
20260507112559 54 242 2.0 10.0 0.00 0.00 0.00 52 1015.8
20260507112021 54 262 3.0 10.0 0.00 0.00 0.00 52 1015.9
20260507111611 55 271 2.0 8.0 0.00 0.00 0.00 52 1015.8
20260507111018 54 258 2.0 8.0 0.00 0.00 0.00 52 1015.7
20260507110548 54 292 3.0 7.0 0.00 0.00 0.00 52 1015.8
20260507110141 55 296 2.0 5.0 0.00 0.00 0.00 51 1015.9
20260507105542 55 313 3.0 5.0 0.00 0.00 0.00 50 1015.9
20260507105049 55 230 2.0 5.0 0.00 0.00 0.00 51 1015.8
20260507104616 55 280 1.0 7.0 0.00 0.00 0.00 51 1015.9
20260507104024 55 265 2.0 7.0 0.00 0.00 0.00 51 1015.9
20260507103601 55 227 3.0 8.0 0.00 0.00 0.00 51 1015.7
20260507103113 55 257 2.0 8.0 0.00 0.00 0.00 50 1015.8
20260507102529 55 267 3.0 7.0 0.00 0.00 0.00 50 1015.7
20260507102021 55 323 3.0 6.0 0.00 0.00 0.00 50 1015.7
20260507101613 55 277 2.0 7.0 0.00 0.00 0.00 50 1015.6
20260507101018 55 306 3.0 7.0 0.00 0.00 0.00 50 1015.6
20260507100531 55 270 3.0 6.0 0.00 0.00 0.00 49 1015.7
20260507100131 56 244 2.0 7.0 0.00 0.00 0.00 50 1015.6
20260507095534 56 214 3.0 7.0 0.00 0.00 0.00 49 1015.5
20260507095039 55 244 2.0 7.0 0.00 0.00 0.00 49 1015.6
20260507094619 56 232 2.0 9.0 0.00 0.00 0.00 49 1015.3
20260507094110 56 272 4.0 9.0 0.00 0.00 0.00 49 1015.5
20260507093541 55 282 2.0 8.0 0.00 0.00 0.00 50 1015.5
20260507093125 56 271 2.0 8.0 0.00 0.00 0.00 49 1015.6
20260507092521 56 257 3.0 7.0 0.00 0.00 0.00 49 1015.6
20260507092018 56 275 3.0 10.0 0.00 0.00 0.00 49 1015.5
20260507091611 55 252 2.0 8.0 0.00 0.00 0.00 50 1015.5
20260507091023 55 273 2.0 8.0 0.00 0.00 0.00 51 1015.6
20260507090536 55 248 2.0 6.0 0.00 0.00 0.00 51 1015.5
20260507090132 55 305 3.0 6.0 0.00 0.00 0.00 51 1015.5
20260507085531 55 277 2.0 4.0 0.00 0.00 0.00 51 1015.6
20260507085047 55 294 1.0 4.0 0.00 0.00 0.00 50 1015.5
20260507084601 56 250 1.0 7.0 0.00 0.00 0.00 51 1015.5
20260507084041 56 298 2.0 7.0 0.00 0.00 0.00 50 1015.3
20260507083547 56 290 2.0 7.0 0.00 0.00 0.00 49 1015.5
20260507083125 56 258 2.0 5.0 0.00 0.00 0.00 50 1015.6
20260507082532 56 203 3.0 5.0 0.00 0.00 0.00 50 1015.2
20260507082109 56 286 2.0 7.0 0.00 0.00 0.00 50 1015.1
20260507081540 56 289 2.0 9.0 0.00 0.00 0.00 50 1015.1
20260507081047 56 235 2.0 9.0 0.00 0.00 0.00 50 1015.3
20260507080526 56 236 2.0 5.0 0.00 0.00 0.00 49 1015.2
20260507080106 56 186 2.0 5.0 0.00 0.00 0.00 49 1015.1
20260507075524 56 259 2.0 5.0 0.00 0.00 0.00 49 1015.0
20260507075029 56 234 3.0 6.0 0.00 0.00 0.00 49 1015.0
20260507074608 56 277 2.0 6.0 0.00 0.00 0.00 50 1014.9
20260507074056 56 257 2.0 6.0 0.00 0.00 0.00 50 1014.9
20260507073534 56 264 3.0 5.0 0.00 0.00 0.00 51 1014.8
20260507073052 55 265 3.0 7.0 0.00 0.00 0.00 52 1015.0
20260507072540 55 224 3.0 7.0 0.00 0.00 0.00 52 1014.9
20260507072045 55 262 2.0 5.0 0.00 0.00 0.00 53 1014.9
20260507071637 56 227 2.0 5.0 0.00 0.00 0.00 52 1014.9
20260507071042 56 244 3.0 5.0 0.00 0.00 0.00 53 1014.7
20260507070533 56 223 3.0 7.0 0.00 0.00 0.00 52 1014.7
20260507070104 56 236 3.0 7.0 0.00 0.00 0.00 52 1014.7
20260507065518 56 236 3.0 7.0 0.00 0.00 0.00 53 1014.9
20260507065037 56 249 2.0 6.0 0.00 0.00 0.00 52 1014.9
20260507064809 57 200 3.0 6.0 0.00 0.00 0.00 51 1015.1
20260507064018 57 229 3.0 9.0 0.00 0.00 0.00 50 1014.8
20260507063539 57 138 2.0 9.0 0.00 0.00 0.00 50 1014.9
20260507063056 57 244 2.0 8.0 0.00 0.00 0.00 50 1014.7
20260507062530 57 273 2.0 7.0 0.00 0.00 0.00 50 1014.6
20260507062409 58 219 3.0 7.0 0.00 0.00 0.00 49 1014.4
20260507061638 57 221 2.0 8.0 0.00 0.00 0.00 50 1014.4
20260507061032 57 234 2.0 7.0 0.00 0.00 0.00 50 1014.3
20260507060532 57 229 2.0 6.0 0.00 0.00 0.00 51 1014.2
20260507060112 57 243 2.0 7.0 0.00 0.00 0.00 52 1014.3
20260507055606 57 259 3.0 7.0 0.00 0.00 0.00 51 1014.4
20260507055037 57 242 4.0 8.0 0.00 0.00 0.00 51 1014.6
20260507054618 58 286 3.0 7.0 0.00 0.00 0.00 51 1014.6
20260507054037 58 207 3.0 7.0 0.00 0.00 0.00 49 1014.8
20260507053532 59 229 2.0 10.0 0.00 0.00 0.00 49 1014.9
20260507053131 59 245 2.0 9.0 0.00 0.00 0.00 49 1015.0
20260507052518 58 200 2.0 6.0 0.00 0.00 0.00 49 1014.9
20260507052030 59 319 2.0 6.0 0.00 0.00 0.00 48 1014.7
20260507051611 59 213 3.0 6.0 0.00 0.00 0.00 49 1014.7
20260507051023 59 245 1.0 4.0 0.00 0.00 0.00 48 1014.8
20260507050558 59 266 0.0 4.0 0.00 0.00 0.00 48 1014.7
20260507050117 59 252 1.0 7.0 0.00 0.00 0.00 48 1014.5
20260507045519 59 249 1.0 7.0 0.00 0.00 0.00 48 1014.4
20260507045058 59 246 0.0 4.0 0.00 0.00 0.00 48 1014.5
20260507044612 59 254 1.0 5.0 0.00 0.00 0.00 48 1014.5
20260507044024 60 297 2.0 5.0 0.00 0.00 0.00 47 1014.4
20260507043531 60 234 2.0 6.0 0.00 0.00 0.00 47 1014.4
20260507043035 60 228 2.0 6.0 0.00 0.00 0.00 47 1014.4
20260507042516 60 207 1.0 7.0 0.00 0.00 0.00 47 1014.2
20260507042024 60 340 2.0 6.0 0.00 0.00 0.00 46 1014.4
20260507041621 60 242 3.0 8.0 0.00 0.00 0.00 46 1014.3
20260507041038 61 244 2.0 8.0 0.00 0.00 0.00 46 1014.4
20260507040516 61 264 2.0 9.0 0.00 0.00 0.00 47 1014.5
20260507040110 61 248 3.0 8.0 0.00 0.00 0.00 46 1014.3
20260507035537 61 261 3.0 8.0 0.00 0.00 0.00 46 1014.3
20260507035032 61 269 3.0 8.0 0.00 0.00 0.00 46 1014.2
20260507034615 61 262 3.0 8.0 0.00 0.00 0.00 45 1014.4
20260507034016 61 288 3.0 6.0 0.00 0.00 0.00 45 1014.2
20260507033515 62 240 3.0 7.0 0.00 0.00 0.00 44 1014.2
20260507033111 62 266 3.0 7.0 0.00 0.00 0.00 44 1014.2
20260507032522 62 235 3.0 7.0 0.00 0.00 0.00 43 1014.1
20260507032046 62 244 1.0 4.0 0.00 0.00 0.00 43 1014.1
20260507031617 63 205 2.0 8.0 0.00 0.00 0.00 42 1014.1
20260507031041 63 252 1.0 8.0 0.00 0.00 0.00 41 1014.1
20260507030539 63 219 1.0 4.0 0.00 0.00 0.00 41 1013.8
20260507030115 64 146 2.0 5.0 0.00 0.00 0.00 40 1013.7
20260507025524 64 210 2.0 5.0 0.00 0.00 0.00 40 1013.7
20260507025024 64 201 1.0 6.0 0.00 0.00 0.00 40 1013.7
20260507024555 64 198 1.0 5.0 0.00 0.00 0.00 40 1013.6
20260507024038 64 226 1.0 5.0 0.00 0.00 0.00 39 1013.6
20260507023516 65 223 1.0 5.0 0.00 0.00 0.00 38 1013.5
20260507023037 65 257 1.0 5.0 0.00 0.00 0.00 38 1013.5
20260507022541 65 273 1.0 9.0 0.00 0.00 0.00 38 1013.5
20260507022026 65 162 2.0 9.0 0.00 0.00 0.00 37 1013.5
20260507021624 66 265 1.0 7.0 0.00 0.00 0.00 37 1013.3
20260507021042 66 221 1.0 7.0 0.00 0.00 0.00 36 1013.2
20260507020530 66 318 3.0 8.0 0.00 0.00 0.00 36 1013.4
20260507020122 66 244 3.0 8.0 0.00 0.00 0.00 36 1013.3
20260507015522 67 201 2.0 5.0 0.00 0.00 0.00 36 1013.4
20260507015021 67 213 2.0 4.0 0.00 0.00 0.00 36 1013.2
20260507014554 68 217 2.0 7.0 0.00 0.00 0.00 34 1013.1
20260507014023 68 225 0.0 7.0 0.00 0.00 0.00 35 1013.2
20260507013534 68 263 2.0 8.0 0.00 0.00 0.00 34 1013.3
20260507013119 69 279 2.0 11.0 0.00 0.00 0.00 34 1013.3
20260507012529 69 239 2.0 8.0 0.00 0.00 0.00 34 1013.3
20260507012018 70 301 1.0 8.0 0.00 0.00 0.00 32 1013.3
20260507011618 70 257 3.0 8.0 0.00 0.00 0.00 31 1013.1
20260507011042 70 11 2.0 8.0 0.00 0.00 0.00 31 1013.3
20260507010520 71 283 2.0 9.0 0.00 0.00 0.00 31 1013.2
20260507010137 71 77 2.0 9.0 0.00 0.00 0.00 30 1013.3
20260507005521 72 277 2.0 6.0 0.00 0.00 0.00 31 1013.1
20260507005018 72 275 2.0 9.0 0.00 0.00 0.00 30 1013.3
20260507004637 72 273 2.0 8.0 0.00 0.00 0.00 30 1013.1
20260507004021 72 256 4.0 8.0 0.00 0.00 0.00 29 1013.3
20260507003531 73 223 3.0 11.0 0.00 0.00 0.00 28 1013.3
20260507003129 74 269 3.0 10.0 0.00 0.00 0.00 28 1013.4
20260507002531 74 277 4.0 9.0 0.00 0.00 0.00 28 1013.4
20260507002019 75 223 2.0 15.0 0.00 0.00 0.00 28 1013.3
20260507001622 75 335 5.0 15.0 0.00 0.00 0.00 28 1013.4
20260507001024 75 260 1.0 9.0 0.00 0.00 0.00 28 1013.2
20260507000514 75 235 3.0 9.0 0.00 0.00 0.00 28 1013.1
20260507000118 76 273 2.0 12.0 0.00 0.00 0.00 28 1012.9
20260506235541 76 206 4.0 12.0 0.00 0.00 0.00 27 1012.9
20260506235032 76 300 3.0 10.0 0.00 0.00 0.00 27 1012.9
20260506234609 76 338 4.0 10.0 0.00 0.00 0.00 28 1012.8
20260506234023 76 250 2.0 11.0 0.00 0.00 0.00 27 1012.8
20260506233533 76 302 3.0 13.0 0.00 0.00 0.00 27 1012.8
20260506233107 77 320 5.0 13.0 0.00 0.00 0.00 27 1012.6